This demonstration page uses our WeatherBlox Daily Observations layout. Learn more.

Left ArrowRight Arrow

Hourly Observations for February 11, 2017

Temp ( °F °C ) Dew Point ( °F °C ) Humidity (%) Winds ( mph kmh ) Pressure ( in mb ) Visibility ( mi km ) Precip ( " mm )
12:53 am 00:53 Clear 51 10.6 29 -1.7 43 43 SW 5 7 29.90 1013 10 16 N/A
1:53 am 01:53 Clear 52 11.1 29 -1.7 41 41 WSW 12 19 29.90 1012 10 16 N/A
2:53 am 02:53 Clear 52 11.1 30 -1.1 43 43 SW 6 9 29.90 1013 10 16 N/A
3:53 am 03:53 Clear 53 11.7 32 undefined 45 45 SW 6 9 29.89 1012 10 16 N/A
4:53 am 04:53 Clear 50 10 32 undefined 50 50 SW 5 7 29.91 1013 10 16 N/A
5:53 am 05:53 Clear 51 10.6 34 1.1 52 52 SW 6 9 29.92 1013 10 16 N/A
6:53 am 06:53 Clear 52 11.1 37 2.8 57 57 SW 8 13 29.93 1013 10 16 N/A
7:53 am 07:53 Sunny 52 11.1 39 3.9 61 61 WSW 8 13 29.94 1014 10 16 N/A
8:53 am 08:53 Sunny 53 11.7 40 4.4 61 61 WSW 5 7 29.96 1015 10 16 N/A
9:53 am 09:53 Sunny 56 13.3 43 6.1 62 62 WSW 8 13 29.97 1015 10 16 N/A
10:53 am 10:53 Sunny 61 16.1 46 7.8 58 58 WSW 13 20 29.96 1015 10 16 N/A
11:53 am 11:53 Sunny 63 17.2 49 9.4 60 60 WSW 6 9 29.98 1015 10 16 N/A
12:53 pm 12:53 Sunny 67 19.4 52 11.1 59 59 SW 10 17 29.93 1014 10 16 N/A
1:53 pm 13:53 Mostly Cloudy 66 18.9 52 11.1 61 61 WSW 12 19 29.93 1014 10 16 N/A
2:53 pm 14:53 Mostly Cloudy 67 19.4 52 11.1 59 59 SSW 8 13 29.92 1013 10 16 N/A
3:53 pm 15:53 Cloudy 66 18.9 53 11.7 63 63 SSW 9 15 29.91 1013 10 16 N/A
4:53 pm 16:53 Cloudy 65 18.3 53 11.7 66 66 S 7 11 29.90 1013 10 16 N/A
5:53 pm 17:53 Cloudy 64 17.8 54 12.2 70 70 S 3 6 29.91 1013 10 16 N/A
6:53 pm 18:53 Cloudy 63 17.2 53 11.7 70 70 S 3 6 29.92 1013 10 16 N/A
7:53 pm 19:53 Cloudy 62 16.7 54 12.2 75 75 SSW 6 9 29.92 1013 10 16 N/A
8:11 pm 20:11 Cloudy 62 16.7 54 12.2 75 75 SSW 6 9 29.91 1013 10 16 N/A
8:53 pm 20:53 Cloudy 61 16.1 56 13.3 84 84 VRB 5 7 29.92 1013 9 14 N/A
9:53 pm 21:53 Cloudy 59 15 56 13.3 90 90 N N/A 29.89 1012 8 13 N/A
10:30 pm 22:30 Cloudy 60 15.6 56 13.3 86 86 S 3 6 29.88 1012 9 14 N/A
10:53 pm 22:53 Cloudy 61 16.1 57 13.9 87 87 SSW 5 7 29.87 1011 9 14 N/A
11:43 pm 23:43 Cloudy 60 15.6 58 14.4 93 93 N N/A 29.83 1010 7 11 N/A
11:53 pm 23:53 Mostly Cloudy with Light Rain 60 15.6 59 15 96 96 N N/A 29.83 1010 6 10 N/A

Powered by AerisWeather